time_stamp(utc),avg(mph),gust(mph),direction(deg),12m_air_temp(f),sonic_u(cm/s),sonic_v(cm/s),sonic_w(cm/s),pressure,2m_air_temp(f),pyranometer(W/m^2)
"2020-05-03 00:03:21+00",21.0,25.0,,60.2,-611,-733,5,1014.02,59.9,0
"2020-05-03 00:08:21+00",19.4,24.4,,60.1,-561,-688,8,1014.04,59.7,0
"2020-05-03 00:13:21+00",18.9,21.9,,59.9,-555,-682,12,1014.22,59.6,0
"2020-05-03 00:18:21+00",18.1,21.1,,59.8,-522,-641,6,1014.13,59.4,0
"2020-05-03 00:23:21+00",17.8,19.8,,59.5,-499,-652,15,1014.23,59.2,0
"2020-05-03 00:28:21+00",17.5,20.5,,59.2,-499,-628,13,1014.29,59,0
"2020-05-03 00:33:21+00",17.5,19.5,,59.1,-522,-585,10,1014.25,58.8,0
"2020-05-03 00:38:21+00",17.6,19.6,,59.1,-547,-558,2,1014.39,58.8,0
"2020-05-03 00:43:21+00",17.3,20.3,,59,-523,-549,-1,1014.39,58.7,0
"2020-05-03 00:48:21+00",17.4,19.4,,58.8,-501,-605,4,1014.27,58.5,0
"2020-05-03 00:53:21+00",15.5,18.5,,58.5,-432,-584,8,1014.24,58.2,0
"2020-05-03 00:58:21+00",16.8,19.8,,58.3,-497,-593,7,1014.28,58,0
"2020-05-03 01:03:21+00",16.5,18.5,,58.1,-471,-601,-1,1014.3,57.8,0
"2020-05-03 01:08:21+00",16.6,18.6,,58,-478,-583,-3,1014.35,57.7,0
"2020-05-03 01:13:21+00",13.7,17.7,,58,-394,-494,7,1014.12,57.6,0
"2020-05-03 01:18:21+00",15.5,17.5,,58,-447,-546,15,1014.11,57.5,0
"2020-05-03 01:23:21+00",15.5,17.5,,58.1,-485,-478,-2,1014.15,57.6,0
"2020-05-03 01:28:21+00",15.4,18.4,,58.2,-479,-481,0,1014.22,57.6,0
"2020-05-03 01:33:21+00",15.2,17.2,,58.3,-473,-475,9,1014.33,57.7,0
"2020-05-03 01:38:21+00",15.7,17.7,,58.2,-492,-483,-1,1014.47,57.7,0
"2020-05-03 01:43:21+00",15.6,18.6,,58.2,-509,-454,21,1014.48,57.7,0
"2020-05-03 01:48:21+00",15.5,18.5,,58.2,-515,-458,26,1014.48,57.7,0
"2020-05-03 01:53:21+00",14.1,16.1,,58,-462,-419,16,1014.42,57.6,0
"2020-05-03 01:58:21+00",14.0,16.0,,58,-457,-415,20,1014.56,57.5,0
"2020-05-03 02:03:21+00",13.3,15.3,,57.9,-436,-393,12,1014.54,57.4,0
"2020-05-03 02:08:21+00",14.0,15.0,,57.9,-491,-392,7,1014.49,57.4,0
"2020-05-03 02:13:21+00",14.9,16.9,,58,-466,-463,0,1014.52,57.3,0
"2020-05-03 02:18:21+00",15.6,18.6,,57.7,-494,-465,14,1014.47,57.3,0
"2020-05-03 02:23:21+00",14.2,16.2,,57.6,-437,-439,11,1014.41,57.2,0
"2020-05-03 02:28:21+00",13.6,15.6,,57.4,-388,-493,5,1014.42,57.1,0
"2020-05-03 02:33:21+00",12.5,15.5,,57.4,-361,-408,17,1014.34,57.1,0
"2020-05-03 02:38:21+00",13.6,15.6,,57.5,-409,-424,7,1014.32,57.1,0
"2020-05-03 02:43:21+00",14.6,17.6,,57.7,-493,-412,5,1014.42,57.1,0
"2020-05-03 02:48:21+00",13.4,15.4,,57.9,-402,-417,3,1014.41,57.2,0
"2020-05-03 02:53:21+00",13.5,14.5,,57.7,-428,-407,7,1014.45,57.2,0
"2020-05-03 02:58:21+00",12.6,13.6,,57.8,-451,-344,5,1014.48,57.3,0
"2020-05-03 03:03:21+00",12.2,14.2,,58.1,-365,-412,14,1014.52,57.4,0
"2020-05-03 03:08:21+00",11.7,12.7,,58,-307,-446,0,1014.56,57.4,0
"2020-05-03 03:13:21+00",12.0,13.0,,58.1,-355,-386,-3,1014.38,57.5,0
"2020-05-03 03:18:21+00",12.7,13.7,,58.8,-437,-353,14,1014.15,57.8,0
"2020-05-03 03:23:21+00",11.7,12.7,,59.5,-337,-400,5,1013.86,58.2,0
"2020-05-03 03:28:21+00",11.3,13.3,,59,-228,-457,4,1013.84,58.4,0
"2020-05-03 03:33:21+00",12.1,13.1,,59.1,-302,-469,17,1013.74,58.4,0
"2020-05-03 03:38:21+00",12.6,14.6,,59.3,-349,-466,10,1013.75,58.5,0
"2020-05-03 03:43:21+00",14.2,17.2,,59.4,-393,-508,13,1013.75,58.6,0
"2020-05-03 03:48:21+00",16.0,19.0,,59.6,-495,-501,14,1013.81,58.8,0
"2020-05-03 03:53:21+00",16.8,19.8,,59.8,-532,-519,12,1013.84,59,0
"2020-05-03 03:58:21+00",17.2,19.2,,59.9,-567,-515,5,1013.77,59.1,0
"2020-05-03 04:03:21+00",16.8,18.8,,60,-569,-486,4,1013.72,59.2,0
"2020-05-03 04:08:21+00",15.8,17.8,,60.1,-557,-444,9,1013.76,59.3,0
"2020-05-03 04:13:21+00",15.7,16.7,,60.1,-545,-437,12,1013.81,59.4,0
"2020-05-03 04:18:21+00",14.4,17.4,,60.1,-499,-398,38,1013.97,59.4,0
"2020-05-03 04:23:21+00",15.4,17.4,,60,-500,-448,10,1014.07,59.3,0
"2020-05-03 04:28:21+00",12.1,14.1,,59.8,-376,-367,23,1014.04,59.2,0
"2020-05-03 04:33:21+00",12.4,14.4,,59.6,-368,-418,4,1014.03,59.1,0
"2020-05-03 04:38:21+00",11.5,12.5,,59.4,-327,-406,3,1013.96,58.9,0
"2020-05-03 04:43:21+00",10.8,11.8,,59.4,-293,-402,4,1013.87,58.8,0
"2020-05-03 04:48:21+00",9.8,10.8,,59.2,-287,-322,-2,1013.89,58.7,0
"2020-05-03 04:53:21+00",9.5,11.5,,59.2,-289,-306,-8,1013.75,58.5,0
"2020-05-03 04:58:21+00",8.6,10.6,,59.5,-264,-276,2,1013.65,58.6,0
"2020-05-03 05:03:21+00",9.0,11.0,,59.7,-293,-274,22,1013.62,58.7,0
"2020-05-03 05:08:21+00",10.0,12.0,,60.1,-308,-316,13,1013.36,59,0
"2020-05-03 05:13:21+00",11.2,14.2,,60.1,-352,-342,19,1013.35,59.2,0
"2020-05-03 05:18:21+00",10.0,12.0,,60,-306,-313,12,1013.28,59.2,0
"2020-05-03 05:23:21+00",11.7,13.7,,59.6,-335,-409,-1,1013.19,59.1,0
"2020-05-03 05:28:21+00",12.1,14.1,,59.5,-353,-413,6,1013.13,58.9,0
"2020-05-03 05:33:21+00",12.2,13.2,,59.3,-322,-456,11,1013.04,58.8,0
"2020-05-03 05:38:21+00",12.0,14.0,,59.2,-305,-458,3,1012.79,58.7,0
"2020-05-03 05:43:21+00",12.8,14.8,,59.1,-332,-493,7,1012.65,58.5,0
"2020-05-03 05:48:21+00",13.8,14.8,,59.1,-369,-518,3,1012.64,58.5,0
"2020-05-03 05:53:21+00",13.4,15.4,,59.1,-355,-508,-3,1012.54,58.5,0
"2020-05-03 05:58:21+00",16.4,19.4,,59.3,-450,-629,0,1012.41,58.6,0
"2020-05-03 06:03:21+00",15.8,17.8,,59.2,-419,-600,13,1012.36,58.6,0
"2020-05-03 06:08:21+00",18.2,21.2,,59.1,-547,-631,11,1012.31,58.6,0
"2020-05-03 06:13:21+00",17.6,19.6,,59.1,-489,-652,10,1012.22,58.6,0
"2020-05-03 06:18:21+00",18.7,20.7,,58.7,-488,-706,2,1012.03,58.4,0
"2020-05-03 06:23:21+00",13.9,16.9,,58.6,-281,-562,-1,1011.87,58.2,0
"2020-05-03 06:28:21+00",17.6,19.6,,58.6,-426,-677,-14,1011.85,58.1,0
"2020-05-03 06:33:21+00",15.2,17.2,,58.4,-355,-592,12,1011.85,58,0
"2020-05-03 06:38:21+00",14.4,17.4,,58.1,-371,-569,11,1011.76,57.8,0
"2020-05-03 06:43:21+00",17.4,20.4,,58,-448,-682,0,1011.64,57.6,0
"2020-05-03 06:48:21+00",17.4,20.4,,58,-409,-684,-5,1011.62,57.6,0
"2020-05-03 06:53:21+00",16.4,19.4,,58,-367,-649,4,1011.53,57.5,0
"2020-05-03 06:58:21+00",15.7,18.7,,57.9,-311,-629,15,1011.54,57.5,0
"2020-05-03 07:03:21+00",15.3,18.3,,57.8,-282,-624,1,1011.27,57.4,0
"2020-05-03 07:08:21+00",15.5,17.5,,57.6,-259,-635,9,1011.21,57.3,0
"2020-05-03 07:13:21+00",15.3,17.3,,57.5,-226,-643,23,1011.11,57.2,0
"2020-05-03 07:18:21+00",17.2,20.2,,57.6,-268,-691,-14,1010.97,57.1,0
"2020-05-03 07:23:21+00",16.4,18.4,,57.5,-225,-686,-7,1010.99,57.1,0
"2020-05-03 07:28:21+00",14.4,16.4,,56.9,-181,-599,-10,1010.91,56.7,0
"2020-05-03 07:33:21+00",15.3,20.3,,56.5,-195,-631,3,1010.73,56.4,0
"2020-05-03 07:38:21+00",16.3,18.3,,56.4,-205,-668,-6,1010.64,56.2,0
"2020-05-03 07:43:21+00",14.4,16.4,,56.3,-179,-601,2,1010.61,56,0
"2020-05-03 07:48:21+00",16.4,19.4,,56.3,-231,-669,-5,1010.51,56,0
"2020-05-03 07:53:21+00",16.1,18.1,,56.4,-284,-661,3,1010.63,56,0
"2020-05-03 07:58:21+00",13.9,15.9,,56.3,-225,-580,13,1010.67,56,0
"2020-05-03 08:03:21+00",13.1,16.1,,56.4,-240,-524,-4,1010.87,56.1,0
"2020-05-03 08:08:21+00",11.9,14.9,,56.5,-253,-468,20,1011.07,56.1,0
"2020-05-03 08:13:21+00",10.6,12.6,,56.5,-261,-415,8,1011.22,56.1,0
"2020-05-03 08:18:21+00",10.1,11.1,,56.6,-306,-343,-8,1011.55,56.1,0
"2020-05-03 08:23:21+00",8.7,10.7,,56.6,-326,-229,1,1011.97,56.1,0
"2020-05-03 08:28:21+00",10.1,12.1,,56.8,-410,-213,34,1012.33,56.1,0
"2020-05-03 08:33:21+00",11.7,12.7,,56.3,-502,-111,19,1012.64,55.9,0
"2020-05-03 08:38:21+00",11.9,13.9,,55.8,-499,-246,11,1012.73,55.3,0
"2020-05-03 08:43:21+00",10.1,11.1,,55.6,-410,-256,18,1012.86,54.8,0
"2020-05-03 08:48:21+00",12.1,15.1,,55.5,-532,-256,6,1013.02,54.6,0
"2020-05-03 08:53:21+00",12.8,14.8,,55.1,-409,-409,3,1012.73,54.3,0
"2020-05-03 08:58:21+00",13.7,14.7,,54.9,-327,-537,-1,1012.44,54,0
"2020-05-03 09:03:21+00",13.6,15.6,,54.5,-236,-556,-7,1012.3,53.8,0
"2020-05-03 09:08:21+00",10.9,12.9,,54.4,-169,-442,9,1012.24,53.7,0
"2020-05-03 09:13:21+00",10.9,13.9,,54.3,-162,-436,4,1012.27,53.6,0
"2020-05-03 09:18:21+00",9.2,11.2,,54.1,-88,-387,2,1012.09,53.5,0
"2020-05-03 09:23:21+00",8.1,11.1,,53.8,-33,-351,-8,1011.88,53.4,0
"2020-05-03 09:28:21+00",10.5,12.5,,53.8,-70,-437,-16,1011.77,53.2,0
"2020-05-03 09:33:21+00",13.4,17.4,,53.8,-80,-574,-10,1011.87,53.2,0
"2020-05-03 09:38:21+00",13.3,17.3,,53.8,-75,-557,-20,1011.69,53.1,0
"2020-05-03 09:43:21+00",11.7,15.7,,53.7,-7,-505,-18,1011.66,53.1,0
"2020-05-03 09:48:21+00",13.9,17.9,,53.7,-28,-580,-15,1011.39,53.1,0
"2020-05-03 09:53:21+00",12.7,16.7,,53.7,-47,-550,-15,1011.34,53.1,0
"2020-05-03 09:58:21+00",15.4,18.4,,53.7,-78,-666,-20,1011.5,53,0
"2020-05-03 10:03:21+00",14.2,18.2,,53.8,-75,-617,-33,1011.52,53.1,0
"2020-05-03 10:08:21+00",12.0,16.0,,53.6,-15,-512,-3,1011.52,53,0
"2020-05-03 10:13:21+00",13.7,17.7,,53.5,-62,-596,-13,1011.4,53,0
"2020-05-03 10:18:21+00",14.2,17.2,,53.5,-73,-612,-31,1011.33,53,0
"2020-05-03 10:23:21+00",14.6,17.6,,53.6,-84,-610,10,1011.26,53.1,0
"2020-05-03 10:28:21+00",15.1,22.1,,53.6,-64,-649,-19,1011.16,53.1,0
"2020-05-03 10:33:21+00",15.4,18.4,,53.5,-81,-668,-29,1011.08,53.1,0
"2020-05-03 10:38:21+00",15.7,21.7,,53.5,-81,-659,-10,1011.15,53.1,0
"2020-05-03 10:43:21+00",15.8,20.8,,53.6,-91,-700,-26,1011.09,53.1,0
"2020-05-03 10:48:21+00",15.5,19.5,,53.6,-103,-662,-8,1011.14,53.2,0
"2020-05-03 10:53:21+00",17.9,21.9,,53.5,-69,-763,-25,1010.98,53.1,0
"2020-05-03 10:58:21+00",16.9,19.9,,53.5,-15,-710,-40,1010.76,53.1,0
"2020-05-03 11:03:21+00",14.5,18.5,,53.5,40,-628,-19,1010.6,53.1,0
"2020-05-03 11:08:21+00",13.8,17.8,,53.4,-65,-575,2,1010.85,53.2,0
"2020-05-03 11:13:21+00",14.7,19.7,,53.4,11,-631,-40,1010.86,53.2,0
"2020-05-03 11:18:21+00",12.8,18.8,,53.4,-78,-542,7,1010.88,53.2,0
"2020-05-03 11:23:21+00",13.5,16.5,,53.5,-58,-570,-16,1010.99,53.2,0
"2020-05-03 11:28:21+00",15.5,19.5,,53.6,-82,-685,-35,1011.14,53.3,0
"2020-05-03 11:33:21+00",12.9,15.9,,53.7,-99,-552,-3,1011.11,53.4,0
"2020-05-03 11:38:21+00",17.0,20.0,,53.7,-114,-716,-19,1011,53.5,0
"2020-05-03 11:43:21+00",13.2,19.2,,53.8,-85,-539,-3,1010.96,53.6,0
"2020-05-03 11:48:21+00",12.6,18.6,,53.9,-98,-553,4,1010.86,53.8,0
"2020-05-03 11:53:21+00",16.6,23.6,,54,-180,-702,-9,1011.04,53.9,0
"2020-05-03 11:58:21+00",15.0,19.0,,54.2,-100,-632,-5,1011.03,54.1,0
"2020-05-03 12:03:21+00",17.1,22.1,,54.2,-167,-741,-1,1010.87,54.2,0
"2020-05-03 12:08:21+00",13.3,18.3,,54.4,-149,-564,-2,1010.87,54.3,0
"2020-05-03 12:13:21+00",15.4,20.4,,54.6,-192,-659,-6,1010.88,54.5,0
"2020-05-03 12:18:21+00",15.6,20.6,,54.7,-224,-657,5,1010.98,54.6,0
"2020-05-03 12:23:21+00",16.9,19.9,,54.7,-288,-706,-14,1011.01,54.7,0
"2020-05-03 12:28:21+00",17.6,18.6,,54.6,-270,-719,-9,1010.92,54.6,0
"2020-05-03 12:33:21+00",16.2,18.2,,54.7,-188,-691,-9,1010.74,54.6,0
"2020-05-03 12:38:21+00",14.7,20.7,,54.7,-169,-626,10,1010.58,54.6,0
"2020-05-03 12:43:21+00",17.2,20.2,,54.8,-277,-708,-11,1010.62,54.8,0
"2020-05-03 12:48:21+00",17.0,19.0,,54.8,-288,-681,-4,1010.51,54.8,0
"2020-05-03 12:53:21+00",13.7,15.7,,55,-227,-560,11,1010.5,54.9,0
"2020-05-03 12:58:21+00",14.6,17.6,,55.1,-211,-634,2,1010.38,55,0
"2020-05-03 13:03:21+00",16.2,20.2,,55.2,-195,-680,-9,1010.31,55.3,0
"2020-05-03 13:08:21+00",13.5,14.5,,55.4,-217,-558,14,1010.32,55.4,0
"2020-05-03 13:13:21+00",17.0,21.0,,55.6,-330,-703,6,1010.23,55.7,0
"2020-05-03 13:18:21+00",16.0,19.0,,55.8,-332,-638,-4,1010.22,56,0
"2020-05-03 13:23:21+00",14.0,17.0,,56.1,-346,-553,30,1010.33,56.3,0
"2020-05-03 13:28:21+00",15.9,18.9,,56.2,-338,-617,-9,1010.17,56.4,0
"2020-05-03 13:33:21+00",16.3,19.3,,56.4,-418,-639,14,1010.3,56.7,0
"2020-05-03 13:38:21+00",13.4,15.4,,56.6,-348,-523,9,1010.26,56.9,0
"2020-05-03 13:43:21+00",13.5,14.5,,57,-365,-483,13,1010.16,57.3,0
"2020-05-03 13:48:21+00",13.9,15.9,,57.6,-351,-537,17,1010.12,57.8,0
"2020-05-03 13:53:21+00",14.9,15.9,,57.9,-434,-559,5,1009.9,58.1,0
"2020-05-03 13:58:21+00",18.2,21.2,,58.1,-547,-584,14,1009.76,58.2,0
"2020-05-03 14:03:21+00",13.4,16.4,,58.1,-377,-478,25,1009.91,58.4,0
"2020-05-03 14:08:21+00",15.1,16.1,,57.9,-400,-569,-10,1009.91,58.3,0
"2020-05-03 14:13:21+00",18.5,20.5,,57.8,-585,-559,21,1010.09,58.3,0
"2020-05-03 14:18:21+00",17.9,19.9,,57.8,-569,-548,4,1010.12,58.5,0
"2020-05-03 14:23:21+00",17.5,20.5,,57.7,-515,-583,10,1010.01,58.3,0
"2020-05-03 14:28:21+00",17.6,19.6,,57.7,-479,-675,16,1009.82,58.2,0
"2020-05-03 14:33:21+00",17.8,20.8,,57.7,-480,-680,8,1009.77,58.1,0
"2020-05-03 14:38:21+00",15.9,17.9,,57.9,-406,-605,28,1009.8,58.3,0
"2020-05-03 14:43:21+00",13.5,16.5,,58.1,-392,-507,38,1009.71,58.6,0
"2020-05-03 14:48:21+00",14.5,17.5,,58.4,-356,-574,21,1009.75,58.9,0
"2020-05-03 14:53:21+00",17.8,20.8,,58.2,-452,-688,-5,1009.9,58.8,0
"2020-05-03 14:58:21+00",18.4,21.4,,58.4,-544,-636,-3,1010.14,58.8,0
"2020-05-03 15:03:21+00",15.8,18.8,,58.1,-461,-568,2,1010.1,58.6,0
"2020-05-03 15:08:21+00",14.7,16.7,,57.8,-405,-557,23,1010.11,58.2,0
"2020-05-03 15:13:21+00",13.0,16.0,,58,-371,-471,66,1009.96,58.3,0
"2020-05-03 15:18:21+00",13.9,15.9,,57.9,-368,-547,9,1009.98,58.4,0
"2020-05-03 15:23:21+00",15.1,17.1,,58,-399,-552,2,1009.97,58.6,0
"2020-05-03 15:28:21+00",13.2,15.2,,58,-367,-475,3,1009.9,58.6,0
"2020-05-03 15:33:21+00",12.6,14.6,,58.3,-381,-445,20,1009.87,58.8,0
"2020-05-03 15:38:21+00",11.4,14.4,,58.6,-351,-354,11,1009.83,59,0
"2020-05-03 15:43:21+00",9.5,10.5,,59.2,-309,-297,53,1009.8,59.5,0
"2020-05-03 15:48:21+00",13.2,15.2,,59.3,-422,-392,7,1009.84,59.8,0
"2020-05-03 15:53:21+00",14.0,15.0,,59,-428,-433,-8,1009.83,59.6,0
"2020-05-03 15:58:21+00",13.1,15.1,,59.1,-430,-395,30,1009.81,59.5,0
"2020-05-03 16:03:21+00",12.5,13.5,,59.1,-406,-369,33,1009.67,59.4,0
"2020-05-03 16:08:21+00",12.6,14.6,,59.1,-405,-374,0,1009.5,59.3,0
"2020-05-03 16:13:21+00",11.9,13.9,,59.3,-382,-342,-4,1009.41,59.4,0
"2020-05-03 16:18:21+00",9.7,10.7,,59.6,-312,-287,8,1009.2,59.7,0
"2020-05-03 16:23:21+00",9.3,10.3,,59.9,-286,-299,12,1009.03,60,0
"2020-05-03 16:28:21+00",9.5,10.5,,60.3,-298,-285,7,1008.91,60.4,0
"2020-05-03 16:33:21+00",8.1,9.1,,60.7,-264,-230,20,1008.88,60.8,0
"2020-05-03 16:38:21+00",8.4,10.4,,60.7,-288,-236,10,1008.87,61,0
"2020-05-03 16:43:21+00",8.7,10.7,,61,-337,-225,7,1008.8,61.4,0
"2020-05-03 16:48:21+00",8.2,9.2,,61.2,-303,-214,23,1008.79,61.7,0
"2020-05-03 16:53:21+00",8.9,9.9,,61.6,-310,-245,19,1008.83,62.1,0
"2020-05-03 16:58:21+00",9.8,10.8,,61.7,-403,-230,5,1008.82,62.3,0
"2020-05-03 17:03:21+00",11.6,13.6,,62.3,-398,-330,20,1008.8,62.8,0
"2020-05-03 17:08:21+00",10.9,12.9,,62.6,-410,-289,36,1008.74,63.4,0
"2020-05-03 17:13:21+00",10.7,12.7,,63,-429,-265,58,1008.88,64,0
"2020-05-03 17:18:21+00",13.6,15.6,,63.2,-565,-180,39,1009.04,64.6,0
"2020-05-03 17:23:21+00",14.2,16.2,,63.6,-598,-266,6,1008.87,65.1,0
"2020-05-03 17:28:21+00",12.2,14.2,,63.7,-499,-189,16,1008.73,65.5,0
"2020-05-03 17:33:21+00",12.9,14.9,,64.3,-543,-103,44,1008.74,66.1,0
"2020-05-03 17:38:21+00",11.9,13.9,,64.8,-498,-173,18,1008.56,66.6,0
"2020-05-03 17:43:21+00",16.7,20.7,,65.2,-712,-179,19,1008.68,66.8,0
"2020-05-03 17:48:21+00",17.0,19.0,,65.3,-703,-218,11,1008.56,66.7,0
"2020-05-03 17:53:21+00",14.9,17.9,,65.4,-618,-157,38,1008.54,66.5,0
"2020-05-03 17:58:21+00",14.8,17.8,,65.8,-627,-124,1,1008.46,66.8,0
"2020-05-03 18:03:21+00",13.7,15.7,,66.4,-577,-156,22,1008.25,67.5,0
"2020-05-03 18:08:21+00",16.1,18.1,,66.4,-669,-201,19,1008.24,67.8,0
"2020-05-03 18:13:21+00",13.6,15.6,,66.2,-545,-211,20,1008.06,67.8,0
"2020-05-03 18:18:21+00",15.4,16.4,,66.3,-631,-256,-6,1008.13,67.7,0
"2020-05-03 18:23:21+00",11.2,12.2,,66.1,-468,-168,11,1007.91,67.6,0
"2020-05-03 18:28:21+00",8.9,10.9,,66.4,-392,-26,34,1007.58,67.6,0
"2020-05-03 18:33:21+00",9.5,10.5,,66.6,-386,-150,31,1007.61,67.7,0
"2020-05-03 18:38:21+00",9.7,11.7,,66.1,-394,-185,2,1007.47,67.6,0
"2020-05-03 18:43:21+00",9.6,12.6,,65.9,-406,-197,18,1007.29,67.4,0
"2020-05-03 18:48:21+00",10.0,11.0,,65.9,-429,-66,16,1007.16,67.2,0
"2020-05-03 18:53:21+00",11.7,12.7,,66.3,-518,-51,14,1007.16,67,0
"2020-05-03 18:58:21+00",11.5,13.5,,66.3,-501,-59,35,1007.09,66.8,0
"2020-05-03 19:03:21+00",10.6,11.6,,66.4,-462,-58,5,1006.88,66.8,0
"2020-05-03 19:08:21+00",10.5,11.5,,66.5,-449,-92,6,1006.84,66.7,0
"2020-05-03 19:13:21+00",9.8,10.8,,66.6,-416,-71,29,1006.83,66.8,0
"2020-05-03 19:18:21+00",9.7,10.7,,66.6,-395,-130,34,1006.78,67.2,0
"2020-05-03 19:23:21+00",12.4,13.4,,67.1,-531,-126,1,1006.58,68,0
"2020-05-03 19:28:21+00",13.1,14.1,,67.7,-540,-167,6,1006.43,69.1,0
"2020-05-03 19:33:21+00",11.6,13.6,,67.9,-480,-134,3,1006.39,69.8,0
"2020-05-03 19:38:21+00",11.4,12.4,,68.2,-474,-130,3,1006.32,70.9,0
"2020-05-03 19:43:21+00",9.6,11.6,,68.3,-391,-197,-7,1006.23,71.2,0
"2020-05-03 19:48:21+00",7.0,8.0,,68.3,-267,-176,17,1006.12,71.1,0
"2020-05-03 19:53:21+00",6.8,7.8,,68.5,-238,-179,-12,1006.15,70.9,0
"2020-05-03 19:58:21+00",6.5,8.5,,69,-178,-213,9,1006.03,70.8,0
"2020-05-03 20:03:21+00",7.5,7.5,,69.5,-270,-198,27,1005.99,70.9,0
"2020-05-03 20:08:21+00",8.0,9.0,,70.3,-257,-242,23,1005.97,71.7,0
"2020-05-03 20:13:21+00",7.1,8.1,,70.8,-270,-182,13,1005.8,72.3,0
"2020-05-03 20:18:21+00",9.5,11.5,,71.7,-388,-137,3,1005.65,73.4,0
"2020-05-03 20:23:21+00",10.8,13.8,,72.5,-341,-330,17,1005.69,74.4,0
"2020-05-03 20:28:21+00",7.5,9.5,,71,-151,-312,26,1005.57,74.5,0
"2020-05-03 20:33:21+00",9.2,11.2,,71,-213,-352,-6,1005.47,74.1,0
"2020-05-03 20:38:21+00",8.5,9.5,,71.2,-294,-234,17,1005.49,74.1,0
"2020-05-03 20:43:21+00",8.3,10.3,,71.5,-292,-225,15,1005.36,74.7,0
"2020-05-03 20:48:21+00",6.7,8.7,,71.6,-185,-228,19,1005.34,74.8,0
"2020-05-03 20:53:21+00",8.0,9.0,,71,-131,-314,3,1005.36,73.3,0
"2020-05-03 20:58:21+00",7.5,9.5,,70.2,-159,-292,10,1005.45,72.8,0
"2020-05-03 21:03:21+00",6.0,7.0,,70.4,-191,-167,12,1005.53,73.2,0
"2020-05-03 21:08:21+00",6.7,8.7,,70.6,-138,-256,17,1005.53,73.6,0
"2020-05-03 21:13:21+00",4.3,6.3,,70.1,-134,-119,6,1005.56,73.4,0
"2020-05-03 21:18:21+00",7.3,9.3,,70.9,-104,-302,5,1005.57,73.9,0
"2020-05-03 21:23:21+00",6.6,7.6,,69.8,14,-279,-1,1005.57,72.1,0
"2020-05-03 21:28:21+00",5.9,6.9,,68.5,36,-245,-13,1005.62,69.8,0
"2020-05-03 21:33:21+00",5.9,6.9,,69.7,-64,-243,-8,1005.55,70.2,0
"2020-05-03 21:38:21+00",4.2,5.2,,70.8,-96,-156,2,1005.47,71.4,0
"2020-05-03 21:43:21+00",9.1,10.1,,72.8,-417,47,7,1005.45,72.8,0
"2020-05-03 21:48:21+00",12.1,14.1,,73.8,-549,119,24,1005.42,74,0
"2020-05-03 21:53:21+00",12.5,13.5,,74.2,-545,-78,26,1005.28,74.6,0
"2020-05-03 21:58:21+00",10.7,12.7,,74.5,-483,-33,28,1005.44,75.2,0
"2020-05-03 22:03:21+00",13.5,15.5,,74.5,-595,-81,20,1005.46,75.8,0
"2020-05-03 22:08:21+00",13.6,15.6,,74.2,-595,-61,35,1005.42,75.6,0
"2020-05-03 22:13:21+00",15.9,17.9,,74.4,-709,13,10,1005.38,75.1,0
"2020-05-03 22:18:21+00",11.9,13.9,,73.6,-514,-72,5,1005.4,74.4,0
"2020-05-03 22:23:21+00",11.1,13.1,,73.3,-471,-81,31,1005.47,74.2,0
"2020-05-03 22:28:21+00",15.1,18.1,,73.3,-635,-149,22,1005.42,74.1,0
"2020-05-03 22:33:21+00",18.3,20.3,,74.2,-803,-118,7,1005.4,74.1,0
"2020-05-03 22:38:21+00",18.0,19.0,,74.4,-794,-93,23,1005.43,74.2,0
"2020-05-03 22:43:21+00",15.1,16.1,,74,-652,-113,16,1005.46,73.7,0
"2020-05-03 22:48:21+00",13.7,14.7,,73.8,-601,-87,17,1005.47,73.4,0
"2020-05-03 22:53:21+00",12.3,13.3,,73.2,-523,-117,16,1005.53,72.8,0
"2020-05-03 22:58:21+00",11.8,12.8,,72.9,-491,-135,2,1005.53,72.1,0
"2020-05-03 23:03:21+00",6.5,7.5,,70.1,-192,-210,6,1005.63,70.5,0
"2020-05-03 23:08:21+00",10.1,12.1,,69,-425,-201,-5,1005.63,69.1,0
"2020-05-03 23:13:21+00",13.7,14.7,,69.9,-557,-186,-1,1005.61,68.6,0
"2020-05-03 23:18:21+00",12.1,13.1,,70.5,-504,-260,10,1005.56,68.4,0
"2020-05-03 23:23:21+00",11.6,12.6,,71,-496,-267,-4,1005.53,68.5,0
"2020-05-03 23:28:21+00",10.9,11.9,,71.1,-326,-355,8,1005.62,68.5,0
"2020-05-03 23:33:21+00",10.6,11.6,,68.3,-257,-401,-3,1005.62,67.7,0
"2020-05-03 23:38:21+00",10.8,11.8,,68.1,-278,-407,2,1005.58,67,0
"2020-05-03 23:43:21+00",9.3,10.3,,67.8,-225,-348,1,1005.58,66.7,0
"2020-05-03 23:48:21+00",10.3,11.3,,66.9,-241,-401,3,1005.56,66.1,0
"2020-05-03 23:53:21+00",10.8,11.8,,67.4,-254,-417,-8,1005.46,65.6,0
"2020-05-03 23:58:21+00",11.5,13.5,,67.1,-184,-466,2,1005.5,65.6,0
